Flag for Canada Weather past 2 weeks in Coral Harbour, Nunavut Territory, Canada

Now
55 °F

Passing clouds.


Feels Like: 55 °F
Forecast: 49 / 67 °F
Wind: 3 mph from Northeast

Location: Coral Harbour

Current Time: Jul 28, 2014 at 11:16:00 PM

Latest Report: Jul 28, 2014 at 10:00 PM


Visibility: 15 mi

Pressure: 30.11 "Hg

Humidity: 82%

Dew point: 50 °F

Location of Coral HarbourLocation

Historic Weather in Coral Harbour — Graph

°F

Coral Harbour temperature yesterday

Maximum temperature yesterday: 55 °F (at 12:00 PM)
Minimum temperature yesterday: 46 °F (at 6:00 AM)
Average temperature yesterday: 51 °F

Past Weeks' High & Low Weather Summary

 TemperatureHumidityPressure
High72 °F (Jul 25, 3:00 PM)100% (Jul 16, 3:00 AM)30.21 "Hg (Jul 16, 3:00 AM)
Low41 °F (Jul 19, 4:00 AM)38% (Jul 25, 2:00 PM)29.36 "Hg (Jul 17, 6:00 PM)
Average53 °F75%29.78 "Hg
* Reported Jul 13 10:00 PM — Jul 28 10:00 PM, Coral Harbour, Weather by CustomWeather, © 2014

Note: Actual official high and low records may vary slightly from our data, if they occured in-between our weather recording intervals... More about our weather records

Advertising

Coral Harbour weather history for previous 24 hours

 ConditionsComfort  
Time TempWeatherWind HumidityBarometerVisibility
10:00 PM
Jul 28
55 °FPassing clouds.3 mph82%30.11 "Hg15 mi
9:00 PM55 °FPartly sunny.No wind88%30.12 "Hg15 mi
8:00 PM57 °FPartly sunny.2 mph77%30.11 "Hg15 mi
7:00 PM57 °FPartly sunny.3 mph82%30.11 "Hg15 mi
6:00 PM59 °FPartly sunny.6 mph77%30.11 "Hg15 mi
5:00 PM59 °FPartly sunny.7 mph77%30.11 "Hg15 mi
4:00 PM59 °FMore clouds than sun.9 mph77%30.11 "Hg15 mi
3:00 PM61 °FOvercast.8 mph72%30.10 "Hg15 mi
2:00 PM63 °FOvercast.6 mph68%30.11 "Hg15 mi
1:00 PM61 °FOvercast.3 mph68%30.11 "Hg15 mi
12:00 PM61 °FOvercast.3 mph68%30.11 "Hg15 mi
11:00 AM59 °FMostly cloudy.3 mph68%30.11 "Hg15 mi
10:00 AM59 °FMostly cloudy.2 mph72%30.12 "Hg15 mi
9:00 AM55 °FMostly cloudy.2 mph77%30.12 "Hg15 mi
8:00 AM52 °FMostly cloudy.2 mph82%30.12 "Hg15 mi
7:00 AM50 °FMostly cloudy.2 mph88%30.12 "Hg15 mi
6:00 AM48 °FOvercast.2 mph87%30.11 "Hg15 mi
5:00 AM46 °FOvercast.2 mph93%30.11 "Hg15 mi
4:00 AM46 °FOvercast.2 mph93%30.11 "Hg15 mi
3:00 AM46 °FOvercast.No wind93%30.10 "Hg15 mi
2:00 AM46 °FOvercast.3 mph93%30.09 "Hg15 mi
1:00 AM48 °FOvercast.No wind87%30.09 "Hg15 mi
12:00 AM48 °FOvercast.3 mph82%30.09 "Hg15 mi
11:00 PM
Jul 27
48 °FOvercast.No wind82%30.08 "Hg15 mi
Weather by CustomWeather, © 2014

See weather overviewHow to use our weather pages